Regional Weather Roundup
Issued by NWS

Home | Current Version | Previous Version | Text Only | Print | Product List | Glossary Off
Versions: 1 2 3 4 5 6 7 8 9 10 11 12 13 14 15 16 17 18 19 20 21 22 23 24 25 26 27 28 29 30 31 32 33 34 35 36 37 38 39 40 41 42 43 44 45 46 47 48 49 50

000
ASUS43 KFSD 151902
RWRSD

WEATHER ROUNDUP FOR SOUTH DAKOTA
NATIONAL WEATHER SERVICE SIOUX FALLS SD
200 PM CDT MON SEP 15 2014

NOTE: "FAIR" INDICATES FEW OR NO CLOUDS BELOW 12,000 FEET WITH NO
SIGNIFICANT WEATHER AND/OR OBSTRUCTIONS TO VISIBILITY.


SDZ001>005-009-010-012>017-152000-
NORTHWEST AND NORTH CENTRAL SOUTH DAKOTA

CITY           SKY/WX    TMP DP  RH WIND       PRES   REMARKS
FAITH            N/A     61  38  42 S16       30.25F
MOBRIDGE       SUNNY     63  35  35 S7        30.24F
$$

SDZ012>016-024>037-041>051-057-063-072>074-152000-
SOUTHWEST AND SOUTH CENTRAL SOUTH DAKOTA

CITY           SKY/WX    TMP DP  RH WIND       PRES   REMARKS
RAPID CTY ARPT SUNNY     62  43  49 S15G24    30.24F
PIERRE         SUNNY     62  36  37 VRB3      30.27F
CUSTER         SUNNY     60  40  47 S8        30.27F
ELLSWORTH AFB  SUNNY     62  43  50 S16G22    30.23F
PHILIP         SUNNY     63  37  38 VRB7      30.27F
PINE RIDGE     SUNNY     62  41  46 S8        30.28F
WINNER         FAIR      62  36  37 NE9       30.29F
$$

SDZ004>011-016>023-039-040-152000-
NORTHEAST SOUTH DAKOTA

CITY           SKY/WX    TMP DP  RH WIND       PRES   REMARKS
ABERDEEN       SUNNY     61  34  36 NW8       30.27F
WATERTOWN      SUNNY     59  35  40 N10       30.25F
$$

SDZ017-020-022-023-036>040-048>070-152000-
SOUTHEAST SOUTH DAKOTA

CITY           SKY/WX    TMP DP  RH WIND       PRES   REMARKS
SIOUX FALLS    PTSUNNY   59  43  55 N10       30.26S
HURON          SUNNY     63  36  36 N10G16    30.28S
CHAMBERLAIN    SUNNY     61  32  33 NE7       30.29F
MITCHELL       SUNNY     61  35  37 MISG      30.29S
YANKTON        PTSUNNY   61  39  44 N10       30.28S
$$

ABBREVIATIONS USED IN REMARKS
   TC - TEMPERATURE IN CELSIUS
  WCI - WIND CHILL INDEX
   HX - HEAT INDEX
  VSB - VISIBILITY




USA.gov is the U.S. government's official web portal to all federal, state and local government web resources and services.